Wind_Speed
14 10 8 8 6 6 6 5 5 5 5 7 7 7 8 8 8 9 10 10 11 10 9 8 8 8 9 11 12 11 9 7 6 6 4 3 2 2 1 2 2 2 3
13 10 10 9 9 7 6 6 5 6 6 6 6 8 8 9 10 11 11 12 13 13 13 11 9 9 9 11 12 14 14 13 10 8 6 4 3 3 4 3 3 2 2
14 12 11 10 8 7 7 7 7 7 7 8 10 10 10 10 13 16 15 12 12 13 14 13 12 12 10 9 12 12 14 14 16 13 11 8 7 6 5 6 5 4 4
15 14 13 12 10 8 8 8 8 10 10 10 10 11 12 13 14 12 12 11 13 15 15 12 12 10 9 10 10 10 12 13 12 16 15 12 11 9 8 8 8 6 6
17 15 13 11 10 9 10 10 10 10 11 12 13 13 13 14 17 18 17 18 16 13 14 13 7 8 6 8 8 8 8 9 8 8 12 17 15 13 12 11 11 10 8
14 13 11 11 10 10 11 12 12 12 14 13 13 14 18 20 19 18 19 19 17 13 13 8 7 6 3 5 6 7 9 10 10 9 9 9 13 18 17 15 13 14 11
16 16 15 12 12 11 11 12 11 12 14 13 13 18 20 18 20 18 20 21 17 13 11 10 8 4 3 5 5 6 8 12 12 11 10 9 9 9 14 20 19 17 16
20 20 18 15 13 12 13 12 12 15 18 17 17 16 3 8 10 6 5 6 5 10 12 11 8 5 6 6 3 5 9 11 10 9 10 9 8 9 9 9 15 22 21
20 19 16 14 13 15 15 17 16 17 18 17 15 7 2 3 3 4 4 5 3 10 9 10 8 7 5 4 1 5 9 10 8 8 9 10 10 9 9 8 9 9 20
15 13 12 13 15 16 19 19 17 14 11 14 12 11 13 8 3 3 2 3 2 3 8 10 9 8 6 3 1 2 5 7 7 9 10 10 8 7 9 10 10 9 9
13 12 12 12 12 12 12 12 11 11 11 12 12 10 8 11 13 7 5 6 2 4 8 12 11 8 4 2 3 4 4 6 8 10 9 8 6 6 8 9 10 11 13
13 11 10 9 10 10 10 11 11 11 11 11 11 11 10 7 3 4 4 6 4 5 9 10 8 6 2 1 3 5 5 5 8 11 7 6 6 9 10 9 11 11 14
14 11 9 8 9 10 10 11 11 12 12 13 13 13 11 12 13 14 15 9 7 7 6 7 6 5 4 1 1 3 3 5 7 6 7 9 7 8 11 10 13 16 17
11 10 9 8 9 9 10 11 11 11 11 12 13 12 12 15 15 14 12 8 3 8 5 6 6 5 3 1 1 2 3 7 6 2 6 5 8 8 6 10 15 17 20
12 10 9 9 9 8 9 10 10 11 10 10 12 11 11 10 12 13 12 10 5 3 3 6 5 5 3 1 2 3 0 4 4 2 4 3 6 8 6 4 9 12 17
11 9 9 10 10 7 9 10 11 10 10 10 11 9 8 10 11 9 8 8 7 6 3 4 4 6 4 1 3 3 2 1 1 0 2 4 5 7 8 8 12 12 15
12 12 11 10 9 9 9 11 10 10 10 10 10 8 10 11 11 10 7 7 6 4 2 2 5 7 4 2 2 2 2 3 3 3 1 1 3 5 6 9 8 10 11
9 9 10 9 9 9 9 10 9 10 10 9 9 9 8 9 8 8 8 8 8 8 7 6 6 5 2 1 2 1 2 3 3 5 4 5 3 5 5 5 7 6 6
9 9 7 7 8 9 8 9 9 9 8 7 8 8 9 8 9 9 7 5 5 6 8 6 6 5 3 2 5 4 3 3 0 1 1 2 4 6 6 5 5 5 5
9 8 7 7 8 8 8 9 8 7 6 6 5 6 7 6 6 6 6 6 7 7 8 8 7 6 5 6 5 6 4 2 2 1 0 1 2 2 4 4 5 4 4
8 7 7 8 7 7 7 8 9 10 9 7 6 4 4 3 2 4 5 5 6 7 9 9 6 4 5 6 5 4 3 3 1 2 2 1 1 1 2 5 6 6 3
7 8 8 8 8 7 9 9 10 11 9 7 7 7 5 4 6 4 4 3 3 5 8 8 7 7 6 5 5 3 3 2 2 1 4 2 2 3 3 4 7 8 4
9 9 9 8 9 9 8 8 11 12 9 9 9 8 7 6 5 5 4 7 8 4 4 7 9 7 7 6 5 3 3 3 2 3 3 2 1 1 3 2 6 7 8
11 10 10 10 10 8 7 10 10 11 10 9 8 7 6 4 4 4 3 4 4 4 4 5 4 5 4 4 3 3 2 1 1 1 3 0 2 1 4 2 4 6 7
12 12 12 12 11 8 9 9 10 11 10 10 8 7 7 5 4 3 4 4 4 5 5 4 3 3 2 2 3 4 4 2 2 2 2 2 2 6 0 3 2 1 2
13 12 12 13 12 10 10 9 9 11 11 10 9 8 7 6 6 4 4 4 5 5 4 4 4 4 3 3 2 3 4 3 2 1 0 3 2 5 0 4 2 3 1
Wind_Direction
199 198 205 213 209 209 212 226 231 241 250 260 270 278 275 281 287 287 285 282 279 288 303 307 308 292 272 276 276 276 282 291 305 322 324 308 275 256 225 163 141 113 99
207 212 218 223 225 230 234 242 246 251 269 275 274 275 282 283 284 282 282 283 280 280 282 290 294 307 300 286 280 279 266 272 276 282 287 294 276 242 225 218 210 189 136
213 220 218 217 227 232 242 240 247 253 259 266 278 281 281 283 281 280 275 276 280 287 289 277 285 284 298 304 299 300 300 278 255 266 265 263 263 256 238 232 231 214 185
215 217 221 224 225 228 232 238 248 257 266 272 280 280 284 286 290 292 290 278 288 290 289 279 284 277 285 299 303 317 329 329 289 253 256 256 257 249 242 234 223 214 200
221 223 220 218 222 229 236 240 252 261 271 273 281 287 286 283 290 294 291 291 289 278 284 291 245 242 268 286 290 302 333 333 331 308 274 255 245 248 240 230 224 221 214
209 210 209 209 217 235 242 246 255 260 269 280 282 288 288 285 286 288 287 290 285 269 269 240 225 223 274 295 300 303 312 325 335 331 302 294 273 249 239 232 235 217 218
217 216 215 214 220 243 254 257 259 267 273 276 295 297 293 293 290 287 287 286 280 263 239 202 199 203 285 299 313 323 322 318 326 343 346 335 311 301 268 240 228 219 215
211 216 216 219 230 248 260 264 265 275 276 277 279 294 299 295 267 288 339 333 255 217 189 193 196 204 201 221 268 331 335 325 328 347 348 344 345 335 316 304 263 236 217
199 197 204 213 240 251 259 265 270 269 274 274 271 256 287 248 313 274 321 349 158 176 177 182 197 193 189 180 191 349 338 329 335 350 344 341 335 323 315 314 291 298 247
203 205 218 234 244 251 256 265 269 268 257 264 279 258 250 255 256 314 316 71 74 183 194 192 185 176 175 186 185 343 330 320 339 351 341 339 332 327 322 322 314 311 292
212 229 235 237 241 247 252 257 262 264 261 263 262 266 267 269 260 238 265 278 154 151 177 178 176 177 179 253 312 360 350 346 356 356 342 336 345 330 347 336 330 315 292
208 214 223 235 245 250 254 259 261 261 260 259 257 256 252 246 258 225 232 238 225 156 160 169 175 184 233 265 346 351 1 5 12 19 15 42 9 353 347 342 335 322 300
199 208 221 235 249 253 255 258 262 265 263 260 255 253 255 259 260 264 258 250 227 192 169 178 172 177 190 199 300 330 335 12 12 22 15 24 336 14 24 359 354 349 330
210 213 223 239 251 261 267 269 268 266 264 262 252 251 261 268 269 264 261 237 216 219 173 176 178 173 182 200 357 353 326 51 42 35 36 17 11 21 24 13 9 359 348
213 224 235 240 247 256 269 269 272 270 262 259 252 253 265 270 261 259 262 253 233 207 195 172 166 164 164 104 360 340 345 84 80 19 314 355 17 15 18 355 7 11 17
206 228 248 250 248 253 266 275 273 270 264 259 254 252 266 268 260 256 254 248 235 239 168 166 177 164 161 173 322 351 23 74 55 85 344 13 21 7 8 23 22 25 36
211 224 230 246 259 258 262 266 270 265 263 256 247 257 269 260 254 246 245 249 246 259 196 143 160 164 167 225 259 37 28 48 50 59 23 15 29 18 354 19 29 27 31
221 215 226 242 260 264 267 267 259 257 258 244 235 262 259 261 248 249 255 247 258 251 218 161 168 162 167 281 210 120 125 95 73 58 34 34 20 18 7 341 4 35 34
215 221 237 241 253 263 265 266 261 249 244 235 225 230 250 255 257 256 236 219 205 189 196 185 155 159 152 207 160 154 152 187 29 351 2 10 41 36 29 3 9 16 27
221 229 241 251 256 272 275 260 243 221 223 231 224 220 232 231 238 226 215 200 195 193 179 178 165 164 175 178 159 158 185 250 254 311 329 317 0 12 40 8 11 13 18
226 238 248 256 265 265 260 250 239 237 242 229 229 233 203 175 201 225 221 189 179 183 172 175 161 185 187 168 186 175 186 250 225 28 354 340 242 313 342 349 358 350 325
229 237 242 245 249 253 265 250 231 224 219 212 193 171 153 141 113 96 91 107 175 192 174 179 177 182 199 185 185 179 160 204 207 297 354 75 67 67 28 23 7 4 8
230 234 235 240 250 254 257 237 221 215 214 205 192 191 180 172 169 169 124 121 91 111 173 188 193 185 198 203 194 176 184 178 215 308 339 184 22 5 339 5 23 27 44
232 232 231 235 237 241 247 215 216 212 208 200 200 196 193 184 171 200 198 160 127 110 111 119 150 167 188 188 189 192 182 173 191 116 17 98 324 339 323 160 70 38 38
233 233 231 229 228 231 226 212 208 202 197 191 196 204 201 194 175 195 194 161 150 121 97 98 115 130 173 224 241 238 216 209 181 196 353 351 350 346 178 162 182 360 25
236 232 231 228 226 232 209 201 202 197 195 195 197 202 207 212 186 207 208 192 187 172 166 176 178 175 181 164 214 222 207 202 178 174 274 350 18 7 181 208 264 308 196
Height
840 841 843 845 846 846 847 848 849 849 850 850 850 850 850 849 849 849 848 848 848 847 847 847 846 845 844 844 843 842 842 841 841 840 839 839 839 840 840 839 839 838 837
839 840 841 843 845 846 846 847 848 848 849 849 849 849 848 848 847 847 846 846 846 846 846 845 845 844 843 842 841 841 841 840 840 839 839 838 837 838 838 839 838 838 839
839 840 840 842 843 845 845 846 847 847 847 848 848 847 846 846 845 844 844 843 843 843 842 843 842 842 842 841 840 839 838 838 837 837 837 836 837 836 837 838 839 838 837
838 839 840 841 842 843 844 845 845 846 846 846 845 845 844 843 843 841 841 840 840 840 839 839 839 840 840 840 839 838 837 835 834 834 834 834 835 835 836 836 837 837 837
836 838 838 839 841 842 842 843 844 844 844 844 843 842 841 840 839 839 838 838 837 837 836 836 836 837 838 837 837 836 835 834 833 832 832 832 832 832 832 833 834 835 836
833 835 836 837 839 840 841 841 842 842 842 841 840 839 839 837 835 834 834 833 833 832 833 832 833 835 836 836 836 835 833 832 830 830 829 829 828 829 829 829 830 831 834
830 832 833 834 836 837 839 839 839 840 839 839 838 836 835 833 832 831 829 828 828 828 829 830 830 832 833 834 833 833 832 831 829 828 828 827 827 826 826 825 825 828 829
827 829 831 832 834 836 836 836 837 837 837 837 837 835 833 830 828 827 826 824 823 826 827 828 828 829 829 830 831 830 830 829 828 827 826 825 824 825 824 824 824 823 823
824 825 827 829 831 833 834 834 834 834 833 833 834 835 834 832 829 827 827 826 826 826 828 829 828 827 830 830 829 829 828 827 826 825 825 824 822 822 822 821 822 820 822
823 822 825 826 827 828 829 830 830 830 830 830 830 830 830 830 829 829 827 827 826 826 827 827 828 829 828 829 828 827 826 825 824 824 823 822 822 820 821 820 820 818 817
820 819 821 823 824 825 826 827 827 828 828 828 828 828 828 827 827 828 827 825 825 825 824 825 826 827 827 827 827 826 825 824 823 822 821 821 821 819 818 817 817 817 816
815 816 819 821 822 823 823 824 824 825 825 825 825 826 826 826 825 824 825 824 824 825 824 825 825 825 827 828 826 825 824 823 822 822 821 818 819 818 816 816 815 813 812
813 816 818 820 822 822 822 822 822 822 822 822 822 822 822 822 823 822 822 822 821 822 823 825 824 824 825 826 826 825 824 821 821 821 821 817 818 816 815 815 813 810 808
814 816 817 818 820 821 821 820 820 819 819 818 819 819 818 819 819 819 818 818 816 817 819 822 823 822 824 824 823 824 823 821 821 822 821 818 818 815 813 813 812 808 804
814 816 817 817 817 816 818 819 817 817 816 816 817 817 816 815 816 816 816 815 814 814 814 819 821 822 822 823 824 823 821 820 820 821 822 819 818 816 814 813 811 808 805
811 815 816 817 817 813 816 817 816 816 814 814 814 814 814 814 813 813 813 813 812 812 813 816 817 819 820 822 822 822 821 821 821 818 821 820 817 816 816 813 811 809 806
809 810 814 817 815 812 813 815 814 814 813 812 812 811 812 811 811 811 810 812 811 812 811 814 815 816 820 820 821 821 821 820 821 819 820 819 818 817 816 814 811 811 808
810 809 811 811 812 813 812 811 810 811 811 810 809 810 810 810 811 810 808 809 810 809 811 812 815 815 818 819 820 820 821 819 821 819 820 819 817 817 815 814 812 811 810
809 809 809 808 809 811 809 811 810 808 807 807 807 808 808 807 809 809 807 807 808 807 808 810 812 813 815 818 817 818 820 822 820 820 818 819 817 817 814 814 812 812 811
807 807 807 807 808 807 806 810 808 806 808 807 806 805 806 805 807 808 808 806 806 808 808 809 810 812 814 816 815 816 819 821 820 819 817 817 817 816 815 814 813 812 812
805 805 805 806 805 806 806 808 807 806 805 805 806 807 805 805 806 810 809 805 806 807 806 809 810 814 816 813 813 814 816 818 819 819 816 815 816 815 814 815 814 812 811
802 803 804 805 805 805 805 805 805 805 805 805 805 805 806 808 803 810 810 806 807 807 806 807 810 812 814 813 814 812 814 816 816 818 817 815 815 815 815 815 814 813 811
801 802 803 803 803 803 803 803 803 803 803 804 804 806 805 804 806 809 810 807 805 807 806 806 808 810 813 813 813 812 813 814 815 816 815 815 815 814 815 815 815 814 812
799 800 800 801 801 801 801 801 801 802 802 803 804 805 806 806 806 808 809 808 807 808 807 806 808 810 813 813 812 813 814 814 815 815 815 814 814 814 814 815 815 815 814
797 797 798 799 799 799 799 800 799 801 801 802 804 805 805 806 807 807 808 807 808 808 807 808 810 811 812 812 812 813 813 813 814 815 815 815 814 813 813 814 814 814 813
795 796 796 797 797 798 798 799 799 800 800 801 802 803 804 805 806 807 807 806 807 807 808 810 811 811 812 812 812 812 812 812 814 814 814 815 814 814 813 813 813 813 812